Altus AFB, OK

11:48 PM CDT on March 26, 2017 (GMT -0500)
Altus Air Force Base

Weather History for KLTS - July, 2013

Change the Weather History Date:

Sunday, July 21, 2013

  Actual Average Record
Temperature  
Mean Temperature 84 °F -  
Max Temperature 99 °F 96 °F 109 °F (2012)
Min Temperature 70 °F 71 °F 65 °F (2008)
Cooling Degree Days 19    
Growing Degree Days 34 (Base 50)    
Moisture  
Dew Point 65 °F    
Average Humidity 51    
Maximum Humidity 100    
Minimum Humidity 29    
Precipitation  
Precipitation 0.00 in - - ()
Sea Level Pressure  
Sea Level Pressure 29.83 in    
Wind  
Wind Speed 10 mph (South)    
Max Wind Speed 20 mph    
Max Gust Speed 23 mph    
Visibility 10 miles    
Events      
Averages and records for this station are not official NWS values.
T = Trace of Precipitation, MM = Missing Value Source: NWS Daily Summary

Daily Weather History Graph

Daily Weather History Graph

Search for Another Location

Airport or City:

Trip Planner

Search our weather history database for the weather conditions in past years. The results will help you decide how hot, cold, wet, or windy it might be!

Date:

Astronomy

Jul. 21, 2013 Rise Set
Actual Time 6:39 AM CDT 8:47 PM CDT
Civil Twilight 6:11 AM CDT 9:15 PM CDT
Nautical Twilight 5:36 AM CDT 9:50 PM CDT
Astronomical Twilight 4:58 AM CDT 10:27 PM CDT
Moon 7:48 PM CDT (7/21) 5:26 AM CDT (7/21)
Length of Visible Light 15h 04m
Length of Day
14h 07m
Waxing Gibbous, 98% of the Moon is Illuminated
Jul 21
Waxing Gibbous
Jul 22
Full
Jul 29
Last Quarter
Aug 6
New
Aug 14
First Quarter

Hourly Weather History & Observations

Time (CDT) Temp. Heat Index Dew Point Humidity Pressure Visibility Wind Dir Wind Speed Gust Speed Precip Events Conditions
12:58 AM 79.2 °F - 68.0 °F 69% 29.84 in 10.0 mi South 9.2 mph - N/A   Mostly Cloudy
1:58 AM 77.9 °F - 68.4 °F 72% 29.84 in 10.0 mi South 10.4 mph - N/A   Clear
2:58 AM 75.2 °F - 69.8 °F 83% 29.83 in 10.0 mi SSE 8.1 mph - N/A   Clear
3:56 AM 73.4 °F - 69.8 °F 88% 29.87 in 10.0 mi SE 3.5 mph - N/A   Clear
4:58 AM 72.1 °F - 70.5 °F 95% 29.83 in 10.0 mi ESE 2.3 mph - N/A   Clear
5:58 AM 70.5 °F - 70.5 °F 100% 29.83 in 10.0 mi SE 5.8 mph - N/A   Clear
6:58 AM 70.3 °F - 70.2 °F 99% 29.84 in 10.0 mi SE 2.3 mph - N/A   Clear
7:58 AM 74.3 °F - 71.1 °F 90% 29.84 in 10.0 mi SSE 6.9 mph - N/A   Clear
8:58 AM 81.3 °F 84.3 °F 68.5 °F 65% 29.86 in 10.0 mi SW 4.6 mph - N/A   Clear
9:58 AM 87.4 °F 88.5 °F 63.7 °F 45% 29.86 in 10.0 mi SW 10.4 mph - N/A   Clear
10:58 AM 91.9 °F 93.3 °F 63.9 °F 39% 29.86 in 10.0 mi WSW 15.0 mph - N/A   Clear
11:58 AM 93.2 °F 94.5 °F 63.5 °F 37% 29.86 in 10.0 mi SW 11.5 mph 21.9 mph N/A   Clear
12:58 PM 95.2 °F 96.3 °F 63.0 °F 34% 29.84 in 10.0 mi SW 12.7 mph - N/A   Clear
1:07 PM 95.0 °F 96.0 °F 62.6 °F 34% 29.89 in 10.0 mi SSW 15.0 mph - N/A   Clear
1:25 PM 96.8 °F 97.1 °F 60.8 °F 30% 29.89 in 10.0 mi SSW 12.7 mph - N/A   Clear
1:58 PM 96.4 °F 97.4 °F 62.1 °F 32% 29.83 in 10.0 mi SSW 15.0 mph - N/A   Clear
2:07 PM 96.8 °F 98.0 °F 62.6 °F 32% 29.87 in 10.0 mi South 15.0 mph 21.9 mph N/A   Clear
2:50 PM 98.6 °F 99.4 °F 60.8 °F 29% 29.86 in 10.0 mi South 18.4 mph 19.6 mph N/A   Scattered Clouds
2:58 PM 98.2 °F 98.9 °F 61.2 °F 29% 29.86 in 10.0 mi SSW 19.6 mph 23.0 mph N/A   Scattered Clouds
3:58 PM 97.9 °F 98.8 °F 61.5 °F 30% 29.80 in 10.0 mi SSW 10.4 mph - N/A   Clear
4:58 PM 98.1 °F 99.6 °F 62.2 °F 31% 29.79 in 10.0 mi SW 15.0 mph - N/A   Scattered Clouds
5:27 PM 96.8 °F 98.0 °F 62.6 °F 32% 29.83 in 10.0 mi South 17.3 mph 21.9 mph N/A   Clear
5:37 PM 96.8 °F 98.0 °F 62.6 °F 32% 29.83 in 10.0 mi SW 11.5 mph 21.9 mph N/A   Scattered Clouds
5:38 PM 96.8 °F 98.0 °F 62.6 °F 32% 29.83 in 10.0 mi SW 11.5 mph 21.9 mph N/A   Scattered Clouds
5:58 PM 97.2 °F 98.6 °F 63.1 °F 32% 29.77 in 10.0 mi SW 10.4 mph - N/A   Mostly Cloudy
6:58 PM 96.1 °F 97.8 °F 63.1 °F 34% 29.77 in 10.0 mi South 15.0 mph 23.0 mph N/A   Partly Cloudy
7:58 PM 93.9 °F 95.2 °F 63.3 °F 36% 29.78 in 10.0 mi South 16.1 mph - N/A   Partly Cloudy
8:58 PM 88.9 °F 90.7 °F 64.8 °F 45% 29.79 in 10.0 mi South 9.2 mph - N/A   Clear
9:58 PM 83.7 °F 86.2 °F 66.7 °F 57% 29.80 in 10.0 mi South 9.2 mph - N/A   Clear
10:58 PM 82.4 °F 85.0 °F 67.5 °F 60% 29.83 in 10.0 mi South 10.4 mph - N/A   Clear
11:58 PM 78.4 °F - 68.4 °F 71% 29.84 in 10.0 mi SSE 8.1 mph - N/A   Clear